Location: ??????????
(41.2581°N, 22.8006°E)
Time: 23:57:07
(UTC+00:00)

GEOS 3 Rocket - Pass Details

Date: 23 March 2026
Orbit: 767 x 846 km, 115.0° (Epoch: 13 April)

Event Time Altitude Azimuth Distance (km) Brightness Sun altitude
Rises 03:05:10 0° 39° (NE) 3,412 7.8 -16.1°
Reaches altitude 10° 03:07:34 10° 44° (NE) 2,471 7.1 -15.7°
Maximum altitude 03:12:51 56° 122° (ESE) 995 4.3 -14.7°
Drops below altitude 10° 03:18:03 10° 200° (SSW) 2,429 5.8 -13.7°
Enters shadow 03:19:49 - 204° (SSW) 3,126 6.3 -13.4°
